CZ-6A DEB, 54456

Orbit data source: Space-Track

CZ-6A DEB, 54456 is space debris in SSO originally from a launch on Fri, 11 Nov 2022 UTC launched from the Taiyaun Space Center, China (TSC). Debris objects in space refer to the collection of defunct objects orbiting the Earth. Examples of debris include non-operational satellites, rocket bodies, and fragments generated from explosions, collisions, or faulty payload assembly.

Loading next visibility...
Identifier
54456, 2022-151GG
Orbit
SSO
Country
Flag of CNCN / PRC
Related business
Manufacturer
SAST
Mission
Spacecraft
Bus & Motor
Unknown
Mass
Unknown
Launch date (UTC)
2022-11-11 (4 years ago)
Launch vehicle
Unknown
Launch site
Taiyaun Space Center, China (TSC)
Object type
Payload
Rocket body
Debris
Shape & HBR
Unknown shape, 0.3 m
Radar Cross Section
Medium (>0.1 m² and <1 m²)

Expand to show TLE details & history
Last TLE update: 2 days ago

TLE from 2 days ago
0 CZ-6A DEB
1 54456U 22151GG  26171.47841774  .00003089  00000-0  10777-2 0  9998
2 54456  98.9807 246.6927 0114781 124.8846 236.3190 14.32400218187643
Epoch: 2026-06-20T11:28Z
TLE epoch observation values (Epoch: 2026-06-20T11:28:55.292Z)
Latitude
-0.00005°
Longitude
165.76986°
Altitude
832.887 km
Speed
7.412 km/s
True Right ascension
16h 26m 46s
True Declination
0° 00' 00"
Sunlit
Object was in full shadow at epoch
Visualization orbit readout
Latitude
Unknown
Longitude
Unknown
Altitude
Unknown
Speed
Unknown
Apparent Right ascension
Unknown
Apparent Declination
Unknown
Sunlit
N/A
Visualization observer readout
Local Sidereal Time
21:32:57
Azimuth
Unknown
Elevation
Unknown
Doppler factor
Unknown
Orbital elements
Apogee altitude
863.046 km
Perigee altitude
698.702 km
Semi-major axis
7,159.011 km
Eccentricity
0.01148
Inclination
98.9807°
RAAN
246.6927°
Arg. of periapsis
124.8846°
True anomaly
235.2332°
Mean anomaly
236.319°
Eccentric anomaly
235.77523°
Mean motion
3.58314 °/min
Orbital period
100.47 mins
BSTAR
0.0010777
Loading maneuver chart data...
Computing Atmospheric mass density...
Loading historical data...
Loading historical data...
Loading historical data...
Loading historical data...
Loading historical data...
Loading historical data...
Loading historical data...

Documentation

Showing up to 5 results
|